FALCON 9 DEB (45719 NORAD) Tracking and Keplerian Element Data

This shows tracking and keplerian element data for the satellite.

Feedback or suggestion? Click here.




ElementValue
Catalog45719
NameFALCON 9 DEB
Epoch Orbit488
Epoch Day186.36349254
Epoch Year2020
RAAN13.0293
Inclination52.9944
Eccentricity0.0033257
Argument of Perigee170.2065
Mean Anonmoly189.9629
Mean Motion16.24166912
Decay Rate0.01238685
L11 45719U 20035BQ 20186.36349254 .01238685 11899-4 38682-3 0 9994
L22 45719 52.9944 13.0293 0033257 170.2065 189.9629 16.24166912 4882

Live tracking and technical data element details for FALCON 9 DEB (NORAD 45719). FALCON 9 DEB can be tracked NOW for your location showing map with azimuth and elevation plus other details from your city location.

Track the satellite on the map from your city or location and see movement details for azimuth, elevation, latitude, longitude, range, height, and movement on the map or in text.







IsCatalogInMostPopularTable: catalog: 45719, numindb: 6
Update: records affected: 1



GetName: 45719 FALCON 9 DEB

Hit Count: updated at: Sun, 05 Jul 2020 17:41:09 GMT